Time,TemperatureF,DewpointF,PressureIn,WindDirection,WindDirectionDegrees,WindSpeedMPH,WindSpeedGustMPH,Humidity,HourlyPrecipIn,Conditions,Clouds,dailyrainin,SolarRadiationWatts/m^2,SoftwareType,DateUTC
2013-02-20 00:06:00,44.5,37.4,29.86,NNW,332,1.0,3.0,76,0.00,,,0.00,0.00,VWS V14.01,2013-02-20 08:06:00,
2013-02-20 00:11:00,44.6,37.5,29.86,NE,47,1.0,2.0,76,0.00,,,0.00,0.00,VWS V14.01,2013-02-20 08:11:00,
2013-02-20 00:16:00,44.7,37.9,29.86,NNW,337,0.0,4.0,77,0.00,,,0.00,0.00,VWS V14.01,2013-02-20 08:16:00,
2013-02-20 00:21:00,44.7,37.6,29.86,NW,322,4.0,7.0,76,0.00,,,0.00,0.00,VWS V14.01,2013-02-20 08:21:00,
2013-02-20 00:26:00,44.9,37.5,29.86,NW,306,2.0,7.0,75,0.00,,,0.00,0.00,VWS V14.01,2013-02-20 08:26:00,
2013-02-20 00:31:00,44.9,37.5,29.87,North,9,2.0,6.0,75,0.00,,,0.00,0.00,VWS V14.01,2013-02-20 08:31:00,
2013-02-20 00:36:00,45.0,37.6,29.87,NW,306,6.0,6.0,75,0.00,,,0.00,0.00,VWS V14.01,2013-02-20 08:36:00,
2013-02-20 00:41:00,44.9,37.1,29.87,North,10,3.0,5.0,74,0.00,,,0.00,0.00,VWS V14.01,2013-02-20 08:41:00,
2013-02-20 00:46:00,44.9,37.5,29.88,NNW,333,2.0,7.0,75,0.00,,,0.00,0.00,VWS V14.01,2013-02-20 08:46:00,
2013-02-20 00:51:00,44.9,37.8,29.88,NNW,347,0.0,1.0,76,0.00,,,0.00,0.00,VWS V14.01,2013-02-20 08:51:00,
2013-02-20 00:56:00,44.7,37.6,29.88,WNW,287,4.0,7.0,76,0.00,,,0.00,0.00,VWS V14.01,2013-02-20 08:56:00,
2013-02-20 01:01:00,44.6,37.5,29.88,North,2,0.0,1.0,76,0.00,,,0.00,0.00,VWS V14.01,2013-02-20 09:01:00,
2013-02-20 01:06:00,44.4,37.7,29.88,NNW,343,0.0,4.0,77,0.00,,,0.00,0.00,VWS V14.01,2013-02-20 09:06:00,
2013-02-20 01:11:00,44.2,37.1,29.88,North,353,2.0,2.0,76,0.00,,,0.00,0.00,VWS V14.01,2013-02-20 09:11:00,
2013-02-20 01:16:00,44.1,37.0,29.88,NNW,346,3.0,4.0,76,0.00,,,0.00,0.00,VWS V14.01,2013-02-20 09:16:00,
2013-02-20 01:21:00,44.2,37.5,29.88,WNW,302,2.0,4.0,77,0.00,,,0.00,0.00,VWS V14.01,2013-02-20 09:21:00,
2013-02-20 01:26:00,44.2,37.1,29.88,NW,314,2.0,5.0,76,0.00,,,0.00,0.00,VWS V14.01,2013-02-20 09:26:00,
2013-02-20 01:31:00,44.2,37.1,29.88,NW,308,1.0,4.0,76,0.00,,,0.00,0.00,VWS V14.01,2013-02-20 09:31:00,
2013-02-20 01:36:00,44.2,37.1,29.88,WNW,297,0.0,4.0,76,0.00,,,0.00,0.00,VWS V14.01,2013-02-20 09:36:00,
2013-02-20 01:41:00,44.1,37.0,29.89,NW,318,0.0,1.0,76,0.00,,,0.00,0.00,VWS V14.01,2013-02-20 09:41:00,
2013-02-20 01:46:00,44.0,36.9,29.89,NNE,25,0.0,4.0,76,0.00,,,0.00,0.00,VWS V14.01,2013-02-20 09:46:00,
2013-02-20 01:51:00,44.0,36.9,29.89,East,92,0.0,2.0,76,0.00,,,0.00,0.00,VWS V14.01,2013-02-20 09:51:00,
2013-02-20 01:56:00,43.9,37.2,29.89,NNW,329,0.0,4.0,77,0.00,,,0.00,0.00,VWS V14.01,2013-02-20 09:56:00,
2013-02-20 02:01:00,43.9,37.2,29.89,North,354,0.0,1.0,77,0.00,,,0.00,0.00,VWS V14.01,2013-02-20 10:01:00,
2013-02-20 02:06:00,43.8,37.1,29.89,North,354,2.0,4.0,77,0.00,,,0.00,0.00,VWS V14.01,2013-02-20 10:06:00,
2013-02-20 02:11:00,43.8,37.1,29.90,North,354,0.0,0.0,77,0.00,,,0.00,0.00,VWS V14.01,2013-02-20 10:11:00,
2013-02-20 02:16:00,43.6,36.9,29.89,North,354,0.0,0.0,77,0.00,,,0.00,0.00,VWS V14.01,2013-02-20 10:16:00,
2013-02-20 02:21:00,43.4,37.0,29.90,North,354,0.0,2.0,78,0.00,,,0.00,0.00,VWS V14.01,2013-02-20 10:21:00,
2013-02-20 02:26:00,43.3,36.9,29.90,North,354,0.0,2.0,78,0.00,,,0.00,0.00,VWS V14.01,2013-02-20 10:26:00,
2013-02-20 02:31:00,43.0,36.6,29.90,North,354,0.0,0.0,78,0.00,,,0.00,0.00,VWS V14.01,2013-02-20 10:31:00,
2013-02-20 02:36:00,42.9,36.8,29.90,North,354,0.0,1.0,79,0.00,,,0.00,0.00,VWS V14.01,2013-02-20 10:36:00,
2013-02-20 02:41:00,42.7,37.0,29.90,North,354,0.0,1.0,80,0.00,,,0.00,0.00,VWS V14.01,2013-02-20 10:41:00,
2013-02-20 02:46:00,42.5,36.8,29.90,North,354,0.0,1.0,80,0.00,,,0.00,0.00,VWS V14.01,2013-02-20 10:46:00,
2013-02-20 02:51:00,42.3,36.6,29.90,North,354,0.0,0.0,80,0.00,,,0.00,0.00,VWS V14.01,2013-02-20 10:51:00,
2013-02-20 02:56:00,42.1,36.7,29.90,North,354,0.0,1.0,81,0.00,,,0.00,0.00,VWS V14.01,2013-02-20 10:56:00,
2013-02-20 03:01:00,42.0,36.9,29.90,North,354,0.0,0.0,82,0.00,,,0.00,0.00,VWS V14.01,2013-02-20 11:01:00,
2013-02-20 03:06:00,42.0,36.9,29.91,North,353,0.0,1.0,82,0.00,,,0.00,0.00,VWS V14.01,2013-02-20 11:06:00,
2013-02-20 03:11:00,41.8,36.7,29.91,North,353,0.0,1.0,82,0.00,,,0.00,0.00,VWS V14.01,2013-02-20 11:11:00,
2013-02-20 03:16:00,41.6,36.5,29.91,North,353,0.0,1.0,82,0.00,,,0.00,0.00,VWS V14.01,2013-02-20 11:16:00,
2013-02-20 03:21:00,41.5,36.7,29.91,North,353,1.0,1.0,83,0.00,,,0.00,0.00,VWS V14.01,2013-02-20 11:21:00,
2013-02-20 03:26:00,41.4,36.9,29.91,West,265,0.0,2.0,84,0.00,,,0.00,0.00,VWS V14.01,2013-02-20 11:26:00,
2013-02-20 03:31:00,42.1,37.9,29.91,NW,322,1.0,4.0,85,0.00,,,0.00,0.00,VWS V14.01,2013-02-20 11:31:00,
2013-02-20 03:36:00,42.8,38.3,29.91,NW,306,0.0,4.0,84,0.00,,,0.00,0.00,VWS V14.01,2013-02-20 11:36:00,
2013-02-20 03:41:00,43.5,38.4,29.91,NW,305,2.0,6.0,82,0.00,,,0.00,0.00,VWS V14.01,2013-02-20 11:41:00,
2013-02-20 03:46:00,44.1,38.7,29.91,WNW,298,2.0,6.0,81,0.00,,,0.00,0.00,VWS V14.01,2013-02-20 11:46:00,
2013-02-20 03:51:00,44.5,38.7,29.91,NW,317,2.0,3.0,80,0.00,,,0.00,0.00,VWS V14.01,2013-02-20 11:51:00,
2013-02-20 03:56:00,44.9,38.5,29.92,NNW,328,0.0,9.0,78,0.00,,,0.00,0.00,VWS V14.01,2013-02-20 11:56:00,
2013-02-20 04:01:00,45.1,38.7,29.92,NE,37,4.0,4.0,78,0.00,,,0.00,0.00,VWS V14.01,2013-02-20 12:01:00,
2013-02-20 04:06:00,45.3,38.9,29.92,WNW,298,3.0,10.0,78,0.00,,,0.00,0.00,VWS V14.01,2013-02-20 12:06:00,
2013-02-20 04:11:00,45.5,39.0,29.92,West,276,8.0,8.0,78,0.00,,,0.00,0.00,VWS V14.01,2013-02-20 12:11:00,
2013-02-20 04:16:00,45.6,38.8,29.92,NW,308,4.0,9.0,77,0.00,,,0.00,0.00,VWS V14.01,2013-02-20 12:16:00,
2013-02-20 04:21:00,45.6,39.2,29.93,WNW,297,6.0,6.0,78,0.00,,,0.00,0.00,VWS V14.01,2013-02-20 12:21:00,
2013-02-20 04:26:00,45.5,39.4,29.93,WNW,292,5.0,8.0,79,0.00,,,0.00,0.00,VWS V14.01,2013-02-20 12:26:00,
2013-02-20 04:31:00,45.5,39.4,29.93,NW,319,6.0,6.0,79,0.00,,,0.00,0.00,VWS V14.01,2013-02-20 12:31:00,
2013-02-20 04:36:00,45.5,39.4,29.93,WNW,295,3.0,10.0,79,0.00,,,0.00,0.00,VWS V14.01,2013-02-20 12:36:00,
2013-02-20 04:41:00,45.5,39.7,29.94,NNW,331,4.0,13.0,80,0.00,,,0.00,0.00,VWS V14.01,2013-02-20 12:41:00,
2013-02-20 04:46:00,45.6,39.8,29.94,NW,309,3.0,13.0,80,0.00,,,0.00,0.00,VWS V14.01,2013-02-20 12:46:00,
2013-02-20 04:51:00,45.6,39.8,29.94,NNW,334,1.0,5.0,80,0.00,,,0.00,0.00,VWS V14.01,2013-02-20 12:51:00,
2013-02-20 04:56:00,45.7,39.9,29.94,NW,316,2.0,10.0,80,0.00,,,0.00,0.00,VWS V14.01,2013-02-20 12:56:00,
2013-02-20 05:02:00,45.7,39.9,29.94,WNW,294,2.0,6.0,80,0.00,,,0.00,0.00,VWS V14.01,2013-02-20 13:02:00,
2013-02-20 05:07:00,45.7,39.9,29.94,NNE,15,5.0,8.0,80,0.00,,,0.00,0.00,VWS V14.01,2013-02-20 13:07:00,
2013-02-20 05:12:00,45.7,40.2,29.94,NW,307,4.0,8.0,81,0.00,,,0.00,0.00,VWS V14.01,2013-02-20 13:12:00,
2013-02-20 05:17:00,45.8,40.0,29.94,NNW,337,3.0,8.0,80,0.00,,,0.00,0.00,VWS V14.01,2013-02-20 13:17:00,
2013-02-20 05:22:00,45.8,40.0,29.95,WNW,290,5.0,9.0,80,0.00,,,0.00,0.00,VWS V14.01,2013-02-20 13:22:00,
2013-02-20 05:27:00,45.8,39.7,29.95,NNW,331,3.0,9.0,79,0.00,,,0.00,0.00,VWS V14.01,2013-02-20 13:27:00,
2013-02-20 05:32:00,46.0,39.9,29.95,NW,308,2.0,8.0,79,0.00,,,0.00,0.00,VWS V14.01,2013-02-20 13:32:00,
2013-02-20 05:37:00,45.9,40.1,29.95,NNW,336,3.0,8.0,80,0.00,,,0.00,0.00,VWS V14.01,2013-02-20 13:37:00,
2013-02-20 05:42:00,45.9,40.1,29.95,NW,320,1.0,5.0,80,0.00,,,0.00,0.00,VWS V14.01,2013-02-20 13:42:00,
2013-02-20 05:47:00,45.8,40.3,29.95,WNW,301,9.0,9.0,81,0.00,,,0.00,0.00,VWS V14.01,2013-02-20 13:47:00,
2013-02-20 05:52:00,45.8,40.3,29.95,NW,326,3.0,7.0,81,0.00,,,0.00,0.00,VWS V14.01,2013-02-20 13:52:00,
2013-02-20 05:57:00,45.9,40.4,29.95,North,358,5.0,9.0,81,0.00,,,0.00,0.00,VWS V14.01,2013-02-20 13:57:00,
2013-02-20 06:02:00,45.9,40.4,29.95,WNW,302,3.0,5.0,81,0.00,,,0.00,0.00,VWS V14.01,2013-02-20 14:02:00,
2013-02-20 06:07:00,45.9,40.4,29.95,NNW,337,3.0,6.0,81,0.00,,,0.00,0.00,VWS V14.01,2013-02-20 14:07:00,
2013-02-20 06:12:00,45.9,40.7,29.95,WNW,302,0.0,4.0,82,0.00,,,0.00,0.00,VWS V14.01,2013-02-20 14:12:00,
2013-02-20 06:17:00,45.7,40.5,29.96,WNW,302,0.0,4.0,82,0.00,,,0.00,0.00,VWS V14.01,2013-02-20 14:17:00,
2013-02-20 06:22:00,45.5,40.3,29.96,WNW,299,0.0,5.0,82,0.00,,,0.00,0.00,VWS V14.01,2013-02-20 14:22:00,
2013-02-20 06:27:00,45.6,40.7,29.96,WNW,284,9.0,9.0,83,0.00,,,0.00,0.00,VWS V14.01,2013-02-20 14:27:00,
2013-02-20 06:32:00,45.7,40.8,29.96,NW,311,2.0,3.0,83,0.00,,,0.00,0.00,VWS V14.01,2013-02-20 14:32:00,
2013-02-20 06:37:00,45.7,40.8,29.96,NNE,29,0.0,4.0,83,0.00,,,0.00,0.00,VWS V14.01,2013-02-20 14:37:00,
2013-02-20 06:42:00,45.7,40.8,29.96,NW,306,6.0,7.0,83,0.00,,,0.00,0.00,VWS V14.01,2013-02-20 14:42:00,
2013-02-20 06:47:00,45.8,40.9,29.96,NW,316,1.0,7.0,83,0.00,,,0.00,0.00,VWS V14.01,2013-02-20 14:47:00,
2013-02-20 06:52:00,45.9,40.7,29.97,NNW,338,3.0,5.0,82,0.00,,,0.00,5.00,VWS V14.01,2013-02-20 14:52:00,
2013-02-20 06:57:00,46.0,41.1,29.97,North,8,0.0,7.0,83,0.00,,,0.00,9.00,VWS V14.01,2013-02-20 14:57:00,
2013-02-20 07:02:00,46.0,41.1,29.97,NNW,339,2.0,6.0,83,0.00,,,0.00,14.00,VWS V14.01,2013-02-20 15:02:00,
2013-02-20 07:07:00,46.2,41.3,29.97,WNW,295,2.0,8.0,83,0.00,,,0.00,18.00,VWS V14.01,2013-02-20 15:07:00,
2013-02-20 07:12:00,46.4,41.5,29.97,WNW,295,4.0,8.0,83,0.00,,,0.00,25.00,VWS V14.01,2013-02-20 15:12:00,
2013-02-20 07:17:00,46.5,41.6,29.97,NNW,333,5.0,9.0,83,0.00,,,0.00,32.00,VWS V14.01,2013-02-20 15:17:00,
2013-02-20 07:22:00,46.6,41.7,29.97,WNW,298,1.0,7.0,83,0.00,,,0.00,28.00,VWS V14.01,2013-02-20 15:22:00,
2013-02-20 07:27:00,46.7,41.8,29.98,WNW,288,4.0,7.0,83,0.00,,,0.00,30.00,VWS V14.01,2013-02-20 15:27:00,
2013-02-20 07:32:00,46.8,41.9,29.98,NNW,332,1.0,7.0,83,0.00,,,0.00,46.00,VWS V14.01,2013-02-20 15:32:00,
2013-02-20 07:37:00,47.0,42.1,29.98,NW,320,2.0,13.0,83,0.00,,,0.00,77.00,VWS V14.01,2013-02-20 15:37:00,
2013-02-20 07:42:00,47.2,42.6,29.98,WNW,286,3.0,6.0,84,0.00,,,0.00,46.00,VWS V14.01,2013-02-20 15:42:00,
2013-02-20 07:47:00,47.3,42.7,29.99,WNW,289,3.0,9.0,84,0.00,,,0.00,83.00,VWS V14.01,2013-02-20 15:47:00,
2013-02-20 07:52:00,47.4,42.8,29.99,WNW,283,2.0,5.0,84,0.00,,,0.00,114.00,VWS V14.01,2013-02-20 15:52:00,
2013-02-20 07:57:00,47.6,43.0,29.99,WNW,301,4.0,7.0,84,0.00,,,0.00,171.00,VWS V14.01,2013-02-20 15:57:00,
2013-02-20 08:02:00,47.7,43.1,29.99,NW,314,4.0,10.0,84,0.00,,,0.00,181.00,VWS V14.01,2013-02-20 16:02:00,
2013-02-20 08:07:00,47.8,42.9,29.99,NNW,327,3.0,10.0,83,0.00,,,0.00,206.00,VWS V14.01,2013-02-20 16:07:00,
2013-02-20 08:12:00,48.0,43.1,29.99,WNW,291,2.0,7.0,83,0.00,,,0.00,134.00,VWS V14.01,2013-02-20 16:12:00,
2013-02-20 08:17:00,48.2,43.3,29.99,NW,312,0.0,7.0,83,0.00,,,0.00,239.00,VWS V14.01,2013-02-20 16:17:00,
2013-02-20 08:22:00,48.5,43.3,29.99,North,10,4.0,6.0,82,0.00,,,0.00,260.00,VWS V14.01,2013-02-20 16:22:00,
2013-02-20 08:27:00,48.6,43.4,29.99,WNW,303,4.0,9.0,82,0.00,,,0.00,271.00,VWS V14.01,2013-02-20 16:27:00,
2013-02-20 08:32:00,48.7,43.5,29.99,WNW,291,3.0,7.0,82,0.00,,,0.00,290.00,VWS V14.01,2013-02-20 16:32:00,
2013-02-20 08:37:00,48.8,43.2,30.00,WNW,293,7.0,10.0,81,0.00,,,0.00,304.00,VWS V14.01,2013-02-20 16:37:00,
2013-02-20 08:42:00,48.8,42.9,29.99,WNW,283,11.0,11.0,80,0.00,,,0.00,325.00,VWS V14.01,2013-02-20 16:42:00,
2013-02-20 08:47:00,49.0,43.4,30.00,WNW,289,5.0,11.0,81,0.00,,,0.00,341.00,VWS V14.01,2013-02-20 16:47:00,
2013-02-20 08:52:00,49.2,43.3,30.00,NW,326,2.0,8.0,80,0.00,,,0.00,359.00,VWS V14.01,2013-02-20 16:52:00,
2013-02-20 08:57:00,49.3,43.1,30.00,NW,318,2.0,8.0,79,0.00,,,0.00,374.00,VWS V14.01,2013-02-20 16:57:00,
2013-02-20 09:02:00,49.3,43.4,30.00,West,264,1.0,7.0,80,0.00,,,0.00,390.00,VWS V14.01,2013-02-20 17:02:00,
2013-02-20 09:07:00,49.6,43.4,30.00,NNW,333,3.0,7.0,79,0.00,,,0.00,406.00,VWS V14.01,2013-02-20 17:07:00,
2013-02-20 09:12:00,49.7,43.5,30.01,West,279,7.0,7.0,79,0.00,,,0.00,417.00,VWS V14.01,2013-02-20 17:12:00,
2013-02-20 09:17:00,49.7,43.1,30.01,WNW,295,4.0,8.0,78,0.00,,,0.00,434.00,VWS V14.01,2013-02-20 17:17:00,
2013-02-20 09:22:00,49.7,43.1,30.01,West,272,4.0,6.0,78,0.00,,,0.00,450.00,VWS V14.01,2013-02-20 17:22:00,
2013-02-20 09:27:00,49.7,42.8,30.01,WNW,293,2.0,6.0,77,0.00,,,0.00,462.00,VWS V14.01,2013-02-20 17:27:00,
2013-02-20 09:32:00,49.9,43.0,30.01,WNW,289,4.0,6.0,77,0.00,,,0.00,480.00,VWS V14.01,2013-02-20 17:32:00,
2013-02-20 09:37:00,49.9,43.0,30.01,North,351,0.0,6.0,77,0.00,,,0.00,489.00,VWS V14.01,2013-02-20 17:37:00,
2013-02-20 09:42:00,50.1,43.2,30.01,WNW,283,8.0,8.0,77,0.00,,,0.00,506.00,VWS V14.01,2013-02-20 17:42:00,
2013-02-20 09:47:00,50.3,43.4,30.01,NNW,341,1.0,8.0,77,0.00,,,0.00,515.00,VWS V14.01,2013-02-20 17:47:00,
2013-02-20 09:52:00,50.3,43.0,30.01,NE,38,3.0,5.0,76,0.00,,,0.00,533.00,VWS V14.01,2013-02-20 17:52:00,
2013-02-20 09:57:00,50.4,42.8,30.01,NNW,348,4.0,8.0,75,0.00,,,0.00,541.00,VWS V14.01,2013-02-20 17:57:00,
2013-02-20 10:02:00,50.6,43.3,30.01,NNW,339,1.0,3.0,76,0.00,,,0.00,555.00,VWS V14.01,2013-02-20 18:02:00,
2013-02-20 10:07:00,50.9,43.6,30.02,WSW,254,5.0,6.0,76,0.00,,,0.00,568.00,VWS V14.01,2013-02-20 18:07:00,
2013-02-20 10:12:00,50.9,43.3,30.02,NNW,341,3.0,5.0,75,0.00,,,0.00,575.00,VWS V14.01,2013-02-20 18:12:00,
2013-02-20 10:17:00,51.1,43.1,30.02,NW,312,2.0,6.0,74,0.00,,,0.00,584.00,VWS V14.01,2013-02-20 18:17:00,
2013-02-20 10:22:00,51.4,43.8,30.03,NNW,340,0.0,2.0,75,0.00,,,0.00,598.00,VWS V14.01,2013-02-20 18:22:00,
2013-02-20 10:27:00,51.9,43.9,30.03,NW,310,3.0,6.0,74,0.00,,,0.00,599.00,VWS V14.01,2013-02-20 18:27:00,
2013-02-20 10:32:00,51.7,43.7,30.03,WNW,295,4.0,7.0,74,0.00,,,0.00,615.00,VWS V14.01,2013-02-20 18:32:00,
2013-02-20 10:37:00,51.7,44.0,30.03,NW,316,3.0,7.0,75,0.00,,,0.00,624.00,VWS V14.01,2013-02-20 18:37:00,
2013-02-20 10:42:00,51.6,44.0,30.03,SW,236,2.0,9.0,75,0.00,,,0.00,633.00,VWS V14.01,2013-02-20 18:42:00,
2013-02-20 10:47:00,51.9,44.6,30.03,NW,323,2.0,9.0,76,0.00,,,0.00,638.00,VWS V14.01,2013-02-20 18:47:00,
2013-02-20 10:52:00,52.3,44.6,30.03,WNW,294,7.0,8.0,75,0.00,,,0.00,649.00,VWS V14.01,2013-02-20 18:52:00,
2013-02-20 10:57:00,52.6,44.9,30.03,NW,309,6.0,10.0,75,0.00,,,0.00,657.00,VWS V14.01,2013-02-20 18:57:00,
2013-02-20 11:02:00,52.3,44.6,30.03,WNW,295,4.0,7.0,75,0.00,,,0.00,656.00,VWS V14.01,2013-02-20 19:02:00,
2013-02-20 11:07:00,52.3,44.3,30.03,NNW,329,5.0,10.0,74,0.00,,,0.00,661.00,VWS V14.01,2013-02-20 19:07:00,
2013-02-20 11:12:00,52.5,44.8,30.03,NW,316,3.0,5.0,75,0.00,,,0.00,673.00,VWS V14.01,2013-02-20 19:12:00,
2013-02-20 11:17:00,53.0,45.3,30.03,West,262,4.0,7.0,75,0.00,,,0.00,682.00,VWS V14.01,2013-02-20 19:17:00,
2013-02-20 11:22:00,53.0,45.0,30.03,WNW,302,4.0,11.0,74,0.00,,,0.00,684.00,VWS V14.01,2013-02-20 19:22:00,
2013-02-20 11:27:00,53.1,45.4,30.03,WNW,293,2.0,11.0,75,0.00,,,0.00,700.00,VWS V14.01,2013-02-20 19:27:00,
2013-02-20 11:32:00,53.2,45.1,30.03,NW,314,3.0,10.0,74,0.00,,,0.00,703.00,VWS V14.01,2013-02-20 19:32:00,
2013-02-20 11:37:00,53.3,45.2,30.03,WNW,301,7.0,10.0,74,0.00,,,0.00,703.00,VWS V14.01,2013-02-20 19:37:00,
2013-02-20 11:43:00,53.1,45.4,30.03,NNW,331,6.0,11.0,75,0.00,,,0.00,703.00,VWS V14.01,2013-02-20 19:43:00,
2013-02-20 11:48:00,52.9,44.8,30.03,North,349,3.0,11.0,74,0.00,,,0.00,719.00,VWS V14.01,2013-02-20 19:48:00,
2013-02-20 11:53:00,53.0,44.6,30.03,NW,308,4.0,6.0,73,0.00,,,0.00,712.00,VWS V14.01,2013-02-20 19:53:00,
2013-02-20 11:58:00,52.8,44.0,30.03,NNW,330,4.0,13.0,72,0.00,,,0.00,712.00,VWS V14.01,2013-02-20 19:58:00,
2013-02-20 12:03:00,53.1,44.7,30.03,NW,316,3.0,10.0,73,0.00,,,0.00,715.00,VWS V14.01,2013-02-20 20:03:00,
2013-02-20 12:08:00,53.0,45.0,30.03,WNW,287,4.0,10.0,74,0.00,,,0.00,715.00,VWS V14.01,2013-02-20 20:08:00,
2013-02-20 12:13:00,53.0,43.9,30.03,West,279,2.0,12.0,71,0.00,,,0.00,724.00,VWS V14.01,2013-02-20 20:13:00,
2013-02-20 12:18:00,53.0,44.2,30.03,West,277,14.0,14.0,72,0.00,,,0.00,715.00,VWS V14.01,2013-02-20 20:18:00,
2013-02-20 12:23:00,53.3,43.8,30.03,WNW,296,10.0,12.0,70,0.00,,,0.00,714.00,VWS V14.01,2013-02-20 20:23:00,
2013-02-20 12:28:00,53.4,44.6,30.03,West,279,10.0,12.0,72,0.00,,,0.00,715.00,VWS V14.01,2013-02-20 20:28:00,
2013-02-20 12:33:00,53.7,44.5,30.03,WSW,257,6.0,10.0,71,0.00,,,0.00,710.00,VWS V14.01,2013-02-20 20:33:00,
2013-02-20 12:38:00,53.9,45.1,30.02,NNW,328,4.0,11.0,72,0.00,,,0.00,728.00,VWS V14.01,2013-02-20 20:38:00,
2013-02-20 12:43:00,53.3,44.5,30.02,West,267,13.0,19.0,72,0.00,,,0.00,721.00,VWS V14.01,2013-02-20 20:43:00,
2013-02-20 12:48:00,53.2,45.5,30.02,NNW,335,5.0,19.0,75,0.00,,,0.00,701.00,VWS V14.01,2013-02-20 20:48:00,
2013-02-20 12:53:00,53.1,44.7,30.02,WNW,286,9.0,14.0,73,0.00,,,0.00,707.00,VWS V14.01,2013-02-20 20:53:00,
2013-02-20 12:58:00,53.4,45.0,30.02,NW,308,3.0,14.0,73,0.00,,,0.00,703.00,VWS V14.01,2013-02-20 20:58:00,
2013-02-20 13:03:00,53.5,44.7,30.02,WNW,293,13.0,13.0,72,0.00,,,0.00,700.00,VWS V14.01,2013-02-20 21:03:00,
2013-02-20 13:08:00,53.2,45.1,30.02,North,359,3.0,16.0,74,0.00,,,0.00,691.00,VWS V14.01,2013-02-20 21:08:00,
2013-02-20 13:13:00,53.2,45.5,30.02,WSW,248,9.0,16.0,75,0.00,,,0.00,694.00,VWS V14.01,2013-02-20 21:13:00,
2013-02-20 13:18:00,53.1,45.0,30.02,NW,322,4.0,19.0,74,0.00,,,0.00,687.00,VWS V14.01,2013-02-20 21:18:00,
2013-02-20 13:23:00,53.2,45.5,30.02,NW,314,8.0,11.0,75,0.00,,,0.00,680.00,VWS V14.01,2013-02-20 21:23:00,
2013-02-20 13:28:00,53.4,45.7,30.02,WNW,296,10.0,12.0,75,0.00,,,0.00,675.00,VWS V14.01,2013-02-20 21:28:00,
2013-02-20 13:33:00,53.4,46.0,30.02,NW,314,4.0,13.0,76,0.00,,,0.00,666.00,VWS V14.01,2013-02-20 21:33:00,
2013-02-20 13:38:00,53.4,45.7,30.02,NNW,339,4.0,22.0,75,0.00,,,0.00,663.00,VWS V14.01,2013-02-20 21:38:00,
2013-02-20 13:43:00,53.3,45.2,30.01,NNW,340,7.0,17.0,74,0.00,,,0.00,650.00,VWS V14.01,2013-02-20 21:43:00,
2013-02-20 13:48:00,52.9,44.1,30.02,WNW,283,6.0,19.0,72,0.00,,,0.00,649.00,VWS V14.01,2013-02-20 21:48:00,
2013-02-20 13:53:00,52.8,44.8,30.02,WNW,284,8.0,15.0,74,0.00,,,0.00,636.00,VWS V14.01,2013-02-20 21:53:00,
2013-02-20 13:58:00,52.6,44.2,30.02,WNW,282,3.0,16.0,73,0.00,,,0.00,633.00,VWS V14.01,2013-02-20 21:58:00,
2013-02-20 14:03:00,53.1,45.0,30.01,WNW,293,6.0,10.0,74,0.00,,,0.00,621.00,VWS V14.01,2013-02-20 22:03:00,
2013-02-20 14:08:00,53.2,45.1,30.01,NW,320,6.0,13.0,74,0.00,,,0.00,612.00,VWS V14.01,2013-02-20 22:08:00,
2013-02-20 14:13:00,53.4,45.0,30.01,NNW,336,3.0,11.0,73,0.00,,,0.00,608.00,VWS V14.01,2013-02-20 22:13:00,
2013-02-20 14:18:00,53.2,44.8,30.01,North,8,5.0,17.0,73,0.00,,,0.00,594.00,VWS V14.01,2013-02-20 22:18:00,
2013-02-20 14:23:00,53.3,45.2,30.01,West,274,8.0,12.0,74,0.00,,,0.00,580.00,VWS V14.01,2013-02-20 22:23:00,
2013-02-20 14:28:00,53.1,44.7,30.01,WNW,283,8.0,15.0,73,0.00,,,0.00,575.00,VWS V14.01,2013-02-20 22:28:00,
2013-02-20 14:33:00,52.8,44.0,30.01,NNW,347,8.0,12.0,72,0.00,,,0.00,566.00,VWS V14.01,2013-02-20 22:33:00,
2013-02-20 14:38:00,52.8,44.4,30.01,North,356,5.0,16.0,73,0.00,,,0.00,554.00,VWS V14.01,2013-02-20 22:38:00,
2013-02-20 14:43:00,52.7,44.3,30.00,WNW,299,9.0,14.0,73,0.00,,,0.00,550.00,VWS V14.01,2013-02-20 22:43:00,
2013-02-20 14:48:00,52.8,44.8,30.01,WSW,248,6.0,14.0,74,0.00,,,0.00,534.00,VWS V14.01,2013-02-20 22:48:00,
2013-02-20 14:53:00,52.9,44.8,30.00,WNW,282,13.0,13.0,74,0.00,,,0.00,524.00,VWS V14.01,2013-02-20 22:53:00,
2013-02-20 14:58:00,52.9,44.1,30.00,WNW,285,7.0,16.0,72,0.00,,,0.00,508.00,VWS V14.01,2013-02-20 22:58:00,
2013-02-20 15:03:00,52.9,44.1,30.01,WNW,289,4.0,13.0,72,0.00,,,0.00,497.00,VWS V14.01,2013-02-20 23:03:00,
2013-02-20 15:08:00,52.9,44.5,30.00,WSW,247,10.0,16.0,73,0.00,,,0.00,478.00,VWS V14.01,2013-02-20 23:08:00,
2013-02-20 15:13:00,52.7,43.9,30.01,NW,309,5.0,14.0,72,0.00,,,0.00,466.00,VWS V14.01,2013-02-20 23:13:00,
2013-02-20 15:18:00,52.6,43.8,30.01,WSW,239,10.0,14.0,72,0.00,,,0.00,452.00,VWS V14.01,2013-02-20 23:18:00,
2013-02-20 15:23:00,52.5,44.1,30.01,West,273,9.0,11.0,73,0.00,,,0.00,436.00,VWS V14.01,2013-02-20 23:23:00,
2013-02-20 15:28:00,52.8,45.1,30.01,NW,309,5.0,11.0,75,0.00,,,0.00,420.00,VWS V14.01,2013-02-20 23:28:00,
2013-02-20 15:33:00,52.8,44.4,30.01,West,262,8.0,17.0,73,0.00,,,0.00,404.00,VWS V14.01,2013-02-20 23:33:00,
2013-02-20 15:38:00,52.7,44.3,30.01,WNW,283,4.0,17.0,73,0.00,,,0.00,397.00,VWS V14.01,2013-02-20 23:38:00,
2013-02-20 15:43:00,52.6,44.2,30.01,WNW,302,3.0,10.0,73,0.00,,,0.00,381.00,VWS V14.01,2013-02-20 23:43:00,
2013-02-20 15:48:00,52.7,44.3,30.01,NW,307,8.0,10.0,73,0.00,,,0.00,364.00,VWS V14.01,2013-02-20 23:48:00,
2013-02-20 15:53:00,52.7,44.7,30.01,WNW,283,2.0,11.0,74,0.00,,,0.00,341.00,VWS V14.01,2013-02-20 23:53:00,
2013-02-20 15:58:00,52.9,44.5,30.01,NW,317,7.0,11.0,73,0.00,,,0.00,327.00,VWS V14.01,2013-02-20 23:58:00,
2013-02-20 16:03:00,52.4,44.4,30.01,WNW,298,7.0,13.0,74,0.00,,,0.00,315.00,VWS V14.01,2013-02-21 00:03:00,
2013-02-20 16:08:00,52.2,44.5,30.01,NW,309,7.0,18.0,75,0.00,,,0.00,295.00,VWS V14.01,2013-02-21 00:08:00,
2013-02-20 16:13:00,52.4,45.1,30.02,WNW,289,6.0,13.0,76,0.00,,,0.00,278.00,VWS V14.01,2013-02-21 00:13:00,
2013-02-20 16:18:00,52.4,44.7,30.02,NNW,332,4.0,13.0,75,0.00,,,0.00,262.00,VWS V14.01,2013-02-21 00:18:00,
2013-02-20 16:23:00,51.9,43.9,30.02,WNW,288,9.0,14.0,74,0.00,,,0.00,246.00,VWS V14.01,2013-02-21 00:23:00,
2013-02-20 16:28:00,51.8,44.1,30.02,WNW,301,13.0,18.0,75,0.00,,,0.00,227.00,VWS V14.01,2013-02-21 00:28:00,
2013-02-20 16:33:00,51.7,44.4,30.02,West,281,6.0,13.0,76,0.00,,,0.00,211.00,VWS V14.01,2013-02-21 00:33:00,
2013-02-20 16:38:00,51.4,44.1,30.02,NNW,339,7.0,18.0,76,0.00,,,0.00,193.00,VWS V14.01,2013-02-21 00:38:00,
2013-02-20 16:43:00,51.3,44.0,30.02,WNW,293,8.0,15.0,76,0.00,,,0.00,176.00,VWS V14.01,2013-02-21 00:43:00,
2013-02-20 16:48:00,51.2,43.9,30.02,West,272,11.0,15.0,76,0.00,,,0.00,163.00,VWS V14.01,2013-02-21 00:48:00,
2013-02-20 16:53:00,50.9,44.0,30.01,WNW,293,8.0,17.0,77,0.00,,,0.00,139.00,VWS V14.01,2013-02-21 00:53:00,
2013-02-20 16:58:00,51.0,44.4,30.02,WNW,291,3.0,17.0,78,0.00,,,0.00,120.00,VWS V14.01,2013-02-21 00:58:00,
2013-02-20 17:03:00,51.1,44.5,30.02,WNW,303,2.0,15.0,78,0.00,,,0.00,105.00,VWS V14.01,2013-02-21 01:03:00,
2013-02-20 17:08:00,51.0,44.4,30.02,NW,304,11.0,15.0,78,0.00,,,0.00,84.00,VWS V14.01,2013-02-21 01:08:00,
2013-02-20 17:13:00,50.6,44.0,30.02,WNW,287,9.0,17.0,78,0.00,,,0.00,39.00,VWS V14.01,2013-02-21 01:13:00,
2013-02-20 17:18:00,50.4,43.8,30.02,NW,310,6.0,17.0,78,0.00,,,0.00,32.00,VWS V14.01,2013-02-21 01:18:00,
2013-02-20 17:24:00,50.3,44.0,30.02,West,276,10.0,13.0,79,0.00,,,0.00,28.00,VWS V14.01,2013-02-21 01:24:00,
2013-02-20 17:29:00,50.2,44.0,30.02,WNW,295,4.0,14.0,79,0.00,,,0.00,25.00,VWS V14.01,2013-02-21 01:29:00,
2013-02-20 17:34:00,50.1,44.2,30.02,WNW,289,3.0,14.0,80,0.00,,,0.00,19.00,VWS V14.01,2013-02-21 01:34:00,
2013-02-20 17:39:00,50.1,44.2,30.02,West,272,16.0,16.0,80,0.00,,,0.00,16.00,VWS V14.01,2013-02-21 01:39:00,
2013-02-20 17:44:00,49.9,44.0,30.02,NNW,343,14.0,14.0,80,0.00,,,0.00,11.00,VWS V14.01,2013-02-21 01:44:00,
2013-02-20 17:49:00,49.8,44.2,30.03,WNW,291,12.0,19.0,81,0.00,,,0.00,7.00,VWS V14.01,2013-02-21 01:49:00,
2013-02-20 17:54:00,49.7,44.1,30.03,WNW,299,12.0,13.0,81,0.00,,,0.00,5.00,VWS V14.01,2013-02-21 01:54:00,
2013-02-20 17:59:00,49.7,44.1,30.03,NNW,341,5.0,14.0,81,0.00,,,0.00,0.00,VWS V14.01,2013-02-21 01:59:00,
2013-02-20 18:04:00,49.6,44.0,30.03,NW,320,5.0,13.0,81,0.00,,,0.00,0.00,VWS V14.01,2013-02-21 02:04:00,
2013-02-20 18:09:00,49.6,44.3,30.03,WNW,292,18.0,19.0,82,0.00,,,0.00,0.00,VWS V14.01,2013-02-21 02:09:00,
2013-02-20 18:14:00,49.6,44.3,30.03,NW,306,7.0,12.0,82,0.00,,,0.00,0.00,VWS V14.01,2013-02-21 02:14:00,
2013-02-20 18:19:00,49.5,44.2,30.03,West,265,6.0,13.0,82,0.00,,,0.00,0.00,VWS V14.01,2013-02-21 02:19:00,
2013-02-20 18:24:00,49.5,44.6,30.03,North,352,10.0,14.0,83,0.00,,,0.00,0.00,VWS V14.01,2013-02-21 02:24:00,
2013-02-20 18:29:00,49.5,44.6,30.03,NW,306,16.0,16.0,83,0.00,,,0.00,0.00,VWS V14.01,2013-02-21 02:29:00,
2013-02-20 18:34:00,49.4,44.1,30.04,WNW,295,11.0,13.0,82,0.00,,,0.00,0.00,VWS V14.01,2013-02-21 02:34:00,
2013-02-20 18:39:00,49.4,44.1,30.04,WNW,291,7.0,19.0,82,0.00,,,0.00,0.00,VWS V14.01,2013-02-21 02:39:00,
2013-02-20 18:44:00,49.4,44.1,30.04,WNW,287,12.0,12.0,82,0.00,,,0.00,0.00,VWS V14.01,2013-02-21 02:44:00,
2013-02-20 18:49:00,49.4,44.1,30.04,NW,312,2.0,12.0,82,0.00,,,0.00,0.00,VWS V14.01,2013-02-21 02:49:00,
2013-02-20 18:54:00,49.3,44.0,30.04,WNW,295,7.0,13.0,82,0.00,,,0.00,0.00,VWS V14.01,2013-02-21 02:54:00,
2013-02-20 18:59:00,49.4,44.5,30.05,NW,309,4.0,13.0,83,0.00,,,0.00,0.00,VWS V14.01,2013-02-21 02:59:00,
2013-02-20 19:04:00,49.4,44.8,30.05,NW,318,4.0,19.0,84,0.00,,,0.00,0.00,VWS V14.01,2013-02-21 03:04:00,
2013-02-20 19:09:00,49.3,44.4,30.05,WNW,303,6.0,19.0,83,0.00,,,0.00,0.00,VWS V14.01,2013-02-21 03:09:00,
2013-02-20 19:14:00,49.3,44.4,30.05,WNW,289,5.0,14.0,83,0.00,,,0.00,0.00,VWS V14.01,2013-02-21 03:14:00,
2013-02-20 19:19:00,49.3,44.4,30.05,NW,308,11.0,16.0,83,0.00,,,0.00,0.00,VWS V14.01,2013-02-21 03:19:00,
2013-02-20 19:24:00,49.4,44.1,30.06,WNW,293,14.0,15.0,82,0.00,,,0.00,0.00,VWS V14.01,2013-02-21 03:24:00,
2013-02-20 19:29:00,49.4,44.1,30.06,WNW,289,10.0,15.0,82,0.00,,,0.00,0.00,VWS V14.01,2013-02-21 03:29:00,
2013-02-20 19:34:00,49.4,44.1,30.06,WSW,258,6.0,13.0,82,0.00,,,0.00,0.00,VWS V14.01,2013-02-21 03:34:00,
2013-02-20 19:39:00,49.3,44.4,30.06,North,360,4.0,16.0,83,0.00,,,0.00,0.00,VWS V14.01,2013-02-21 03:39:00,
2013-02-20 19:44:00,49.3,44.4,30.06,WNW,289,14.0,14.0,83,0.00,,,0.00,0.00,VWS V14.01,2013-02-21 03:44:00,
2013-02-20 19:49:00,49.3,44.4,30.06,NNW,332,5.0,19.0,83,0.00,,,0.00,0.00,VWS V14.01,2013-02-21 03:49:00,
2013-02-20 19:54:00,49.3,44.4,30.06,NNW,335,4.0,16.0,83,0.00,,,0.00,0.00,VWS V14.01,2013-02-21 03:54:00,
2013-02-20 19:59:00,49.3,44.4,30.06,WNW,295,8.0,16.0,83,0.00,,,0.00,0.00,VWS V14.01,2013-02-21 03:59:00,
2013-02-20 20:04:00,49.3,44.4,30.06,NW,324,2.0,17.0,83,0.00,,,0.00,0.00,VWS V14.01,2013-02-21 04:04:00,
2013-02-20 20:09:00,49.2,44.6,30.06,WNW,290,5.0,17.0,84,0.00,,,0.00,0.00,VWS V14.01,2013-02-21 04:09:00,
2013-02-20 20:14:00,49.3,44.7,30.06,NW,306,4.0,15.0,84,0.00,,,0.00,0.00,VWS V14.01,2013-02-21 04:14:00,
2013-02-20 20:19:00,49.1,44.5,30.07,West,268,11.0,15.0,84,0.00,,,0.00,0.00,VWS V14.01,2013-02-21 04:19:00,
2013-02-20 20:24:00,49.2,44.6,30.07,WSW,258,14.0,16.0,84,0.00,,,0.00,0.00,VWS V14.01,2013-02-21 04:24:00,
2013-02-20 20:29:00,49.2,44.6,30.07,WNW,283,5.0,16.0,84,0.00,,,0.00,0.00,VWS V14.01,2013-02-21 04:29:00,
2013-02-20 20:34:00,49.1,44.5,30.07,NW,307,8.0,9.0,84,0.00,,,0.00,0.00,VWS V14.01,2013-02-21 04:34:00,
2013-02-20 20:39:00,49.1,44.5,30.07,NW,311,8.0,16.0,84,0.00,,,0.00,0.00,VWS V14.01,2013-02-21 04:39:00,
2013-02-20 20:44:00,49.1,44.5,30.08,WNW,285,6.0,14.0,84,0.00,,,0.00,0.00,VWS V14.01,2013-02-21 04:44:00,
2013-02-20 20:49:00,49.2,44.6,30.08,WNW,301,3.0,14.0,84,0.00,,,0.00,0.00,VWS V14.01,2013-02-21 04:49:00,
2013-02-20 20:54:00,49.1,44.5,30.08,NW,322,9.0,15.0,84,0.00,,,0.00,0.00,VWS V14.01,2013-02-21 04:54:00,
2013-02-20 20:59:00,49.1,44.5,30.08,NW,324,2.0,15.0,84,0.00,,,0.00,0.00,VWS V14.01,2013-02-21 04:59:00,
2013-02-20 21:00:00,49.1,44.5,30.08,WNW,295,11.0,15.0,84,0.00,,,0.00,0.00,VWS V14.01,2013-02-21 05:00:00,
2013-02-20 21:02:00,49.1,44.5,30.08,NNW,342,5.0,7.0,84,0.00,,,0.00,0.00,VWS V14.01,2013-02-21 05:02:00,
2013-02-20 21:03:00,49.1,44.5,30.08,West,281,12.0,12.0,84,0.00,,,0.00,0.00,VWS V14.01,2013-02-21 05:03:00,
2013-02-20 21:06:00,49.1,44.5,30.08,NW,308,7.0,13.0,84,0.00,,,0.00,0.00,VWS V14.01,2013-02-21 05:06:00,
2013-02-20 21:11:00,49.1,44.2,30.08,West,263,7.0,10.0,83,0.00,,,0.00,0.00,VWS V14.01,2013-02-21 05:11:00,
2013-02-20 21:16:00,49.2,44.3,30.08,West,275,5.0,12.0,83,0.00,,,0.00,0.00,VWS V14.01,2013-02-21 05:16:00,
2013-02-20 21:21:00,49.2,44.3,30.09,WSW,255,4.0,9.0,83,0.00,,,0.00,0.00,VWS V14.01,2013-02-21 05:21:00,
2013-02-20 21:26:00,49.2,44.3,30.09,WSW,249,7.0,12.0,83,0.00,,,0.00,0.00,VWS V14.01,2013-02-21 05:26:00,
2013-02-20 21:31:00,49.2,44.3,30.10,West,269,7.0,12.0,83,0.00,,,0.00,0.00,VWS V14.01,2013-02-21 05:31:00,
2013-02-20 21:36:00,49.2,44.3,30.09,WNW,297,4.0,12.0,83,0.00,,,0.00,0.00,VWS V14.01,2013-02-21 05:36:00,
2013-02-20 21:41:00,49.1,44.2,30.09,ENE,73,2.0,10.0,83,0.00,,,0.00,0.00,VWS V14.01,2013-02-21 05:41:00,
2013-02-20 21:46:00,49.2,44.3,30.10,NW,305,3.0,10.0,83,0.00,,,0.00,0.00,VWS V14.01,2013-02-21 05:46:00,
2013-02-20 21:51:00,49.2,44.6,30.10,West,260,6.0,7.0,84,0.00,,,0.00,0.00,VWS V14.01,2013-02-21 05:51:00,
2013-02-20 21:56:00,49.1,44.2,30.10,NW,306,1.0,10.0,83,0.00,,,0.00,0.00,VWS V14.01,2013-02-21 05:56:00,
2013-02-20 22:01:00,49.1,44.2,30.10,WNW,303,5.0,6.0,83,0.00,,,0.00,0.00,VWS V14.01,2013-02-21 06:01:00,
2013-02-20 22:06:00,49.0,44.1,30.10,WNW,302,4.0,11.0,83,0.00,,,0.00,0.00,VWS V14.01,2013-02-21 06:06:00,
2013-02-20 22:11:00,49.0,44.1,30.10,WNW,282,8.0,9.0,83,0.00,,,0.00,0.00,VWS V14.01,2013-02-21 06:11:00,
2013-02-20 22:16:00,49.0,44.1,30.10,NW,317,1.0,10.0,83,0.00,,,0.00,0.00,VWS V14.01,2013-02-21 06:16:00,
2013-02-20 22:21:00,49.0,44.1,30.10,NW,308,2.0,5.0,83,0.00,,,0.00,0.00,VWS V14.01,2013-02-21 06:21:00,
2013-02-20 22:26:00,49.0,44.4,30.10,WNW,302,7.0,9.0,84,0.00,,,0.00,0.00,VWS V14.01,2013-02-21 06:26:00,
2013-02-20 22:31:00,49.0,44.1,30.10,NW,316,2.0,6.0,83,0.00,,,0.00,0.00,VWS V14.01,2013-02-21 06:31:00,
2013-02-20 22:36:00,49.0,44.1,30.10,WSW,256,8.0,12.0,83,0.00,,,0.00,0.00,VWS V14.01,2013-02-21 06:36:00,
2013-02-20 22:41:00,48.9,44.0,30.10,WNW,291,3.0,11.0,83,0.00,,,0.00,0.00,VWS V14.01,2013-02-21 06:41:00,
2013-02-20 22:46:00,48.9,44.0,30.10,NW,308,4.0,11.0,83,0.00,,,0.00,0.00,VWS V14.01,2013-02-21 06:46:00,
2013-02-20 22:51:00,49.0,44.1,30.10,NNW,327,1.0,5.0,83,0.00,,,0.00,0.00,VWS V14.01,2013-02-21 06:51:00,
2013-02-20 22:56:00,49.0,44.1,30.10,West,260,4.0,9.0,83,0.00,,,0.00,0.00,VWS V14.01,2013-02-21 06:56:00,
2013-02-20 23:01:00,48.9,44.3,30.11,WNW,301,2.0,6.0,84,0.00,,,0.00,0.00,VWS V14.01,2013-02-21 07:01:00,
2013-02-20 23:06:00,49.0,44.4,30.10,West,266,11.0,11.0,84,0.00,,,0.00,0.00,VWS V14.01,2013-02-21 07:06:00,
2013-02-20 23:11:00,49.0,44.4,30.11,WNW,286,11.0,11.0,84,0.00,,,0.00,0.00,VWS V14.01,2013-02-21 07:11:00,
2013-02-20 23:16:00,49.0,44.4,30.11,NNW,329,1.0,12.0,84,0.00,,,0.00,0.00,VWS V14.01,2013-02-21 07:16:00,
2013-02-20 23:21:00,48.9,44.3,30.10,WNW,287,7.0,16.0,84,0.00,,,0.00,0.00,VWS V14.01,2013-02-21 07:21:00,
2013-02-20 23:26:00,49.0,44.4,30.11,NW,304,2.0,16.0,84,0.00,,,0.00,0.00,VWS V14.01,2013-02-21 07:26:00,
2013-02-20 23:31:00,49.0,44.4,30.10,WNW,293,5.0,9.0,84,0.00,,,0.00,0.00,VWS V14.01,2013-02-21 07:31:00,
2013-02-20 23:36:00,49.0,44.4,30.10,NW,326,6.0,9.0,84,0.00,,,0.00,0.00,VWS V14.01,2013-02-21 07:36:00,
2013-02-20 23:41:00,48.9,44.3,30.10,West,270,5.0,7.0,84,0.00,,,0.00,0.00,VWS V14.01,2013-02-21 07:41:00,
2013-02-20 23:46:00,48.9,44.3,30.10,NW,318,3.0,11.0,84,0.00,,,0.00,0.00,VWS V14.01,2013-02-21 07:46:00,
2013-02-20 23:51:00,48.9,44.3,30.10,NW,320,3.0,6.0,84,0.00,,,0.00,0.00,VWS V14.01,2013-02-21 07:51:00,
2013-02-20 23:56:00,48.9,44.3,30.10,West,259,3.0,6.0,84,0.00,,,0.00,0.00,VWS V14.01,2013-02-21 07:56:00,